^^
Meteo Knjazevac Station Historical Data
Daily Summary for June 15, 2022 Units:  English    Metric   Both
Daily Weekly Monthly Yearly Custom
  High: Low: Average:
Temperature: 48.2 °F 42.1 °F 44.3 °F
Dew Point: 46.6 °F 41.8 °F 43.8 °F
Humidity: 99% 93.5% 98%
Wind Speed: 6.8mph 0mph 2.9mph
Wind Gust: 8mph - -
Wind- - ENE
Pressure: 30.27 in 30.02 in -
Precipitation: 0.00 in    
Historical Graphs
 
 
Tabular Data for June 15, 2022
Time Temperature Dew Point Pressure Wind Wind Speed Wind Gust Humidity Rainfall Rate (Hourly) solar Conditions
00:04 42.6 °F 42.4 °F 30.27 in North 3.1 mph 5 mph 99% 0.00 in 0 W/m2
00:09 42.7 °F 42.4 °F 30.27 in North 1.5 mph 4 mph 99% 0.00 in 0 W/m2
00:14 42.6 °F 42.4 °F 30.27 in North 2.4 mph 2 mph 99% 0.00 in 0 W/m2
00:19 42.6 °F 42.4 °F 30.27 in North 2.3 mph 3 mph 99% 0.00 in 0 W/m2
00:24 42.6 °F 42.4 °F 30.27 in North 0.7 mph 3 mph 99% 0.00 in 0 W/m2
00:29 42.6 °F 42.4 °F 30.27 in NNE 1.5 mph 2 mph 99% 0.00 in 0 W/m2
00:34 42.6 °F 42.4 °F 30.27 in NNE 1.2 mph 2 mph 99% 0.00 in 0 W/m2
00:39 42.7 °F 42.5 °F 30.27 in North 0.8 mph 2 mph 99% 0.00 in 0 W/m2
00:44 42.6 °F 42.4 °F 30.27 in North 1.5 mph 1.1 mph 99% 0.00 in 0 W/m2
00:49 42.7 °F 42.4 °F 30.27 in NNE 1.7 mph 2 mph 99% 0.00 in 0 W/m2
00:54 42.6 °F 42.4 °F 30.27 in NNE 2.2 mph 2 mph 99% 0.00 in 0 W/m2
00:59 42.7 °F 42.5 °F 30.27 in North 0.9 mph 2 mph 99% 0.00 in 0 W/m2
01:04 42.6 °F 42.4 °F 30.27 in North 1.5 mph 2 mph 99% 0.00 in 0 W/m2
01:09 42.6 °F 42.4 °F 30.26 in North 0.8 mph 2 mph 99% 0.00 in 0 W/m2
01:14 42.6 °F 42.4 °F 30.26 in NNE 1.2 mph 1 mph 99% 0.00 in 0 W/m2
01:19 42.6 °F 42.4 °F 30.26 in NNE 1 mph 2 mph 99% 0.00 in 0 W/m2
01:24 42.6 °F 42.4 °F 30.26 in North 2.7 mph 2 mph 99% 0.00 in 0 W/m2
01:29 42.6 °F 42.4 °F 30.26 in North 2.8 mph 3 mph 99% 0.00 in 0 W/m2
01:34 42.6 °F 42.4 °F 30.26 in North 3 mph 4 mph 99% 0.00 in 0 W/m2
01:39 42.6 °F 42.4 °F 30.26 in North 2.5 mph 4 mph 99% 0.00 in 0 W/m2
01:44 42.6 °F 42.4 °F 30.26 in North 2.1 mph 3 mph 99% 0.00 in 0 W/m2
01:49 42.6 °F 42.4 °F 30.25 in North 3.1 mph 3 mph 99% 0.00 in 0 W/m2
01:54 42.6 °F 42.4 °F 30.25 in Calm   4 mph 99% 0.00 in 0 W/m2
01:59 42.6 °F 42.4 °F 30.25 in NE 0.6 mph   99% 0.00 in 0 W/m2
02:04 42.6 °F 42.4 °F 30.25 in NNE 2.2 mph 3 mph 99% 0.00 in 0 W/m2
02:09 42.7 °F 42.5 °F 30.25 in North 1.8 mph 3 mph 99% 0.00 in 0 W/m2
02:14 42.7 °F 42.4 °F 30.25 in North 1.7 mph 2 mph 99% 0.00 in 0 W/m2
02:19 42.6 °F 42.4 °F 30.25 in North 2.2 mph 2 mph 99% 0.00 in 0 W/m2
02:24 42.8 °F 42.5 °F 30.25 in North 2.1 mph 2 mph 99% 0.00 in 0 W/m2
02:29 42.7 °F 42.5 °F 30.25 in North 2.6 mph 3 mph 99% 0.00 in 0 W/m2
02:34 42.8 °F 42.5 °F 30.25 in North 2.6 mph 3 mph 99% 0.00 in 0 W/m2
02:39 42.7 °F 42.5 °F 30.25 in North 2.2 mph 3 mph 99% 0.00 in 0 W/m2
02:44 42.8 °F 42.5 °F 30.25 in North 2.7 mph 3 mph 99% 0.00 in 0 W/m2
02:49 42.8 °F 42.5 °F 30.25 in North 3 mph 3 mph 99% 0.00 in 0 W/m2
02:54 42.8 °F 42.5 °F 30.25 in North 0.5 mph 3 mph 99% 0.00 in 0 W/m2
02:59 42.8 °F 42.5 °F 30.25 in North 0.6 mph 1 mph 99% 0.00 in 0 W/m2
03:04 42.8 °F 42.5 °F 30.25 in North 1.1 mph 1 mph 99% 0.00 in 0 W/m2
03:09 42.8 °F 42.5 °F 30.25 in North 1.6 mph 1.3 mph 99% 0.00 in 0 W/m2
03:14 42.8 °F 42.5 °F 30.24 in NNE 2.1 mph 2 mph 99% 0.00 in 0 W/m2
03:19 42.8 °F 42.5 °F 30.24 in NNE 2.1 mph 2 mph 99% 0.00 in 0 W/m2
03:24 42.7 °F 42.5 °F 30.24 in NNE 1.4 mph 3 mph 99% 0.00 in 0 W/m2
03:29 42.7 °F 42.5 °F 30.24 in NNE 1.6 mph 2 mph 99% 0.00 in 0 W/m2
03:34 42.8 °F 42.5 °F 30.24 in NNE 3 mph 3 mph 99% 0.00 in 0 W/m2
03:39 42.7 °F 42.5 °F 30.24 in North 2.3 mph 3 mph 99% 0.00 in 0 W/m2
03:44 42.6 °F 42.4 °F 30.23 in North 2.5 mph 2 mph 99% 0.00 in 0 W/m2
03:49 42.6 °F 42.4 °F 30.23 in North 2.1 mph 3 mph 99% 0.00 in 0 W/m2
03:54 42.7 °F 42.4 °F 30.24 in North 2.3 mph 3 mph 99% 0.00 in 0 W/m2
03:59 42.7 °F 42.4 °F 30.24 in North 1.5 mph 3 mph 99% 0.00 in 0 W/m2
04:04 42.7 °F 42.5 °F 30.24 in North 2.3 mph 3 mph 99% 0.00 in 0 W/m2
04:09 42.8 °F 42.5 °F 30.24 in North 1.5 mph 3 mph 99% 0.00 in 0 W/m2
04:14 42.8 °F 42.5 °F 30.23 in North 0.7 mph 2 mph 99% 0.00 in 0 W/m2
04:19 42.8 °F 42.5 °F 30.23 in North 1.5 mph 2 mph 99% 0.00 in 0 W/m2
04:24 42.8 °F 42.5 °F 30.23 in North 2.5 mph 2 mph 99% 0.00 in 0 W/m2
04:29 42.8 °F 42.5 °F 30.23 in North 1.5 mph 3 mph 99% 0.00 in 0 W/m2
04:34 42.8 °F 42.5 °F 30.23 in North 2.7 mph 3 mph 99% 0.00 in 0 W/m2
04:39 42.7 °F 42.4 °F 30.23 in North 1.9 mph 3 mph 99% 0.00 in 0 W/m2
04:44 42.7 °F 42.4 °F 30.23 in North 2.2 mph 2 mph 99% 0.00 in 0 W/m2
04:49 42.6 °F 42.4 °F 30.23 in North 1.8 mph 2 mph 99% 0.00 in 0 W/m2
04:54 42.6 °F 42.4 °F 30.23 in North 1.9 mph 2 mph 99% 0.00 in 0 W/m2
04:59 42.6 °F 42.4 °F 30.23 in North 2.6 mph 3 mph 99% 0.00 in 0 W/m2
05:04 42.6 °F 42.4 °F 30.23 in North 2.3 mph 3 mph 99% 0.00 in 0 W/m2
05:09 42.6 °F 42.4 °F 30.23 in North 2.1 mph 3 mph 99% 0.00 in 0 W/m2
05:14 42.6 °F 42.4 °F 30.22 in North 0.7 mph 3 mph 99% 0.00 in 0 W/m2
05:19 42.6 °F 42.4 °F 30.23 in North 0.4 mph 2 mph 99% 0.00 in 0 W/m2
05:24 42.6 °F 42.4 °F 30.22 in North 1.7 mph 2 mph 99% 0.00 in 0 W/m2
05:29 42.6 °F 42.3 °F 30.22 in North 1.3 mph 2 mph 99% 0.00 in 0 W/m2
05:34 42.4 °F 42.2 °F 30.22 in NNE 0.4 mph 2 mph 99% 0.00 in 0 W/m2
05:39 42.4 °F 42.2 °F 30.22 in NNE 0.8 mph 1 mph 99% 0.00 in 0 W/m2
05:44 42.4 °F 42.2 °F 30.22 in NNE 1.9 mph 2 mph 99% 0.00 in 0 W/m2
05:49 42.4 °F 42.2 °F 30.22 in NNE 2 mph 3 mph 99% 0.00 in 0 W/m2
05:54 42.4 °F 42.2 °F 30.22 in NNE 1.5 mph 3 mph 99% 0.00 in 0 W/m2
05:59 42.4 °F 42.1 °F 30.22 in NNE 0.7 mph 2 mph 99% 0.00 in 0 W/m2
06:04 42.4 °F 42.2 °F 30.22 in North 1.4 mph 1 mph 99% 0.00 in 0 W/m2
06:09 42.4 °F 42.1 °F 30.22 in NNE 1.1 mph 2 mph 99% 0.00 in 0 W/m2
06:14 42.4 °F 42.1 °F 30.22 in NNE 1.7 mph 2 mph 99% 0.00 in 0 W/m2
06:19 42.3 °F 42.1 °F 30.22 in North 0.7 mph 2 mph 99% 0.00 in 0 W/m2
06:24 42.3 °F 42 °F 30.22 in NNE 2.3 mph 2 mph 99% 0.00 in 1 W/m2
06:29 42.3 °F 42 °F 30.22 in NNE 2.4 mph 3 mph 99% 0.00 in 1 W/m2
06:34 42.3 °F 42 °F 30.22 in ENE 2.1 mph 3 mph 99% 0.00 in 3 W/m2
06:39 42.3 °F 42 °F 30.22 in East 1.8 mph 2 mph 99% 0.00 in 4 W/m2
06:44 42.1 °F 41.8 °F 30.22 in ENE 1.1 mph 2 mph 99% 0.00 in 8 W/m2
06:49 42.1 °F 41.8 °F 30.22 in NE 0.1 mph 2 mph 99% 0.00 in 10 W/m2
06:54 42.1 °F 41.8 °F 30.22 in NE 0.3 mph 1 mph 99% 0.00 in 15 W/m2
06:59 42.1 °F 41.8 °F 30.22 in Calm     99% 0.00 in 21 W/m2
07:04 42.2 °F 41.9 °F 30.22 in NNE 0.6 mph 0.4 mph 99% 0.00 in 24 W/m2
07:09 42.3 °F 42 °F 30.22 in North 0.7 mph 2 mph 99% 0.00 in 29 W/m2
07:14 42.3 °F 42 °F 30.22 in NNE 2.6 mph 2.2 mph 99% 0.00 in 33 W/m2
07:19 42.3 °F 42 °F 30.22 in ENE 3.3 mph 4 mph 99% 0.00 in 43 W/m2
07:24 42.3 °F 42 °F 30.22 in East 3.6 mph 4 mph 99% 0.00 in 49 W/m2
07:29 42.3 °F 42 °F 30.22 in East 3.4 mph 5 mph 99% 0.00 in 51 W/m2
07:34 42.4 °F 42.2 °F 30.22 in East 3.3 mph 4 mph 99% 0.00 in 51 W/m2
07:39 42.4 °F 42.2 °F 30.22 in East 3.4 mph 4 mph 99% 0.00 in 62 W/m2
07:44 42.5 °F 42.3 °F 30.22 in East 2.8 mph 4 mph 99% 0.00 in 77 W/m2
07:49 42.5 °F 42.3 °F 30.22 in ENE 2.5 mph 3 mph 99% 0.00 in 80 W/m2
07:54 42.4 °F 42.2 °F 30.22 in NE 1.7 mph 2 mph 99% 0.00 in 71 W/m2
07:59 42.5 °F 42.3 °F 30.22 in NE 1.9 mph 3 mph 99% 0.00 in 74 W/m2
08:04 42.5 °F 42.3 °F 30.22 in NNE 1.5 mph 3 mph 99% 0.00 in 75 W/m2
08:09 42.5 °F 42.3 °F 30.22 in NE 0.6 mph 2 mph 99% 0.00 in 95 W/m2
08:14 42.6 °F 42.4 °F 30.21 in ENE 2 mph 2 mph 99% 0.00 in 109 W/m2
08:19 42.8 °F 42.5 °F 30.21 in ENE 2.3 mph 2.2 mph 99% 0.00 in 117 W/m2
08:24 42.9 °F 42.6 °F 30.21 in NE 2.1 mph 2 mph 99% 0.00 in 126 W/m2
08:29 43.1 °F 42.8 °F 30.21 in NE 1.8 mph 2 mph 99% 0.00 in 136 W/m2
08:34 43.2 °F 42.9 °F 30.21 in NE 2.8 mph 2.9 mph 99% 0.00 in 140 W/m2
08:39 43.3 °F 43.1 °F 30.21 in NE 4.1 mph 5 mph 99% 0.00 in 138 W/m2
08:44 43.6 °F 43.3 °F 30.21 in NE 3 mph 5 mph 99% 0.00 in 125 W/m2
08:49 43.8 °F 43.5 °F 30.21 in North 4.5 mph 5 mph 99% 0.00 in 128 W/m2
08:54 43.9 °F 43.6 °F 30.21 in North 3.2 mph 5 mph 99% 0.00 in 130 W/m2
08:59 44.1 °F 43.8 °F 30.21 in North 2.1 mph 4 mph 99% 0.00 in 127 W/m2
09:04 44.1 °F 43.8 °F 30.21 in NNE 3.5 mph 2.7 mph 99% 0.00 in 115 W/m2
09:09 44.1 °F 43.9 °F 30.21 in NNE 3.1 mph 5 mph 99% 0.00 in 96 W/m2
09:14 44.2 °F 44 °F 30.21 in NNE 3.9 mph 6 mph 99% 0.00 in 93 W/m2
09:19 44.2 °F 44 °F 30.21 in North 3.4 mph 5 mph 99% 0.00 in 93 W/m2
09:24 44.3 °F 44.1 °F 30.21 in North 3.5 mph 4 mph 99% 0.00 in 91 W/m2
09:29 44.4 °F 44.2 °F 30.21 in North 3.4 mph 4 mph 99% 0.00 in 88 W/m2
09:34 44.4 °F 44.2 °F 30.21 in North 4.2 mph 4 mph 99% 0.00 in 86 W/m2
09:39 44.4 °F 44.2 °F 30.21 in NNE 5.1 mph 6 mph 99% 0.00 in 83 W/m2
09:44 44.5 °F 44.3 °F 30.21 in NNE 4.2 mph 6 mph 99% 0.00 in 86 W/m2
09:49 44.6 °F 44.3 °F 30.20 in NNE 3.6 mph 5 mph 99% 0.00 in 97 W/m2
09:54 44.6 °F 44.3 °F 30.20 in NNE 3 mph 4 mph 99% 0.00 in 97 W/m2
09:59 44.6 °F 44.3 °F 30.20 in NNE 3.2 mph 4 mph 99% 0.00 in 122 W/m2
10:04 44.7 °F 44.3 °F 30.20 in North 3 mph 4 mph 99% 0.00 in 119 W/m2
10:09 44.8 °F 44.5 °F 30.20 in North 5.4 mph 5 mph 99% 0.00 in 114 W/m2
10:14 44.8 °F 44.5 °F 30.20 in North 4.2 mph 6 mph 99% 0.00 in 96 W/m2
10:19 44.8 °F 44.5 °F 30.19 in North 5.1 mph 5 mph 99% 0.00 in 92 W/m2
10:24 44.8 °F 44.5 °F 30.19 in NNE 4.8 mph 7 mph 99% 0.00 in 93 W/m2
10:29 44.9 °F 44.6 °F 30.19 in NNE 4 mph 6 mph 99% 0.00 in 111 W/m2
10:34 45 °F 44.7 °F 30.19 in NNE 3.9 mph 5 mph 99% 0.00 in 156 W/m2
10:39 45.1 °F 44.9 °F 30.19 in NNE 4.8 mph 7 mph 99% 0.00 in 158 W/m2
10:44 45.2 °F 45 °F 30.19 in NNE 3.6 mph 6 mph 99% 0.00 in 145 W/m2
10:49 45.3 °F 45.1 °F 30.19 in North 3.9 mph 5 mph 99% 0.00 in 124 W/m2
10:54 45.3 °F 44.9 °F 30.19 in North 4.3 mph 2 mph 98.4% 0.00 in 109 W/m2
10:59 45.3 °F 44.8 °F 30.19 in North 3.4 mph 5 mph 98% 0.00 in 122 W/m2
11:04 45.4 °F 44.9 °F 30.18 in North 4.3 mph 5 mph 98% 0.00 in 122 W/m2
11:09 45.4 °F 44.9 °F 30.18 in North 3 mph 5 mph 98% 0.00 in 140 W/m2
11:14 45.5 °F 45 °F 30.18 in North 3.3 mph 4 mph 98% 0.00 in 158 W/m2
11:19 45.5 °F 45 °F 30.18 in NNW 3.9 mph 5 mph 98% 0.00 in 150 W/m2
11:24 45.5 °F 45 °F 30.17 in North 5.1 mph 5 mph 98% 0.00 in 111 W/m2
11:29 45.5 °F 45 °F 30.17 in North 4.4 mph 6 mph 98% 0.00 in 111 W/m2
11:34 45.6 °F 45.1 °F 30.17 in NNE 4.3 mph 6 mph 98% 0.00 in 135 W/m2
11:39 45.8 °F 45.2 °F 30.17 in NNE 3.8 mph 5 mph 98% 0.00 in 166 W/m2
11:44 45.9 °F 45 °F 30.17 in North 3.6 mph 5 mph 96.8% 0.00 in 168 W/m2
11:49 45.9 °F 44.9 °F 30.17 in North 3.5 mph 5 mph 96% 0.00 in 190 W/m2
11:54 46.1 °F 45.1 °F 30.17 in North 2.4 mph 4 mph 96% 0.00 in 199 W/m2
11:59 46.3 °F 45.1 °F 30.17 in NNW 2.9 mph 2 mph 95.5% 0.00 in 190 W/m2
12:04 46.6 °F 45.2 °F 30.17 in NW 2.6 mph 3 mph 95% 0.00 in 189 W/m2
12:09 46.6 °F 45.2 °F 30.16 in NNW 3.6 mph 3 mph 95% 0.00 in 193 W/m2
12:14 46.8 °F 45.4 °F 30.16 in NNE 3.3 mph 5 mph 95% 0.00 in 180 W/m2
12:19 46.9 °F 45.5 °F 30.16 in NNE 3.4 mph 4 mph 94.8% 0.00 in 177 W/m2
12:24 46.9 °F 45.5 °F 30.16 in North 2.3 mph 3 mph 94.5% 0.00 in 161 W/m2
12:29 47.1 °F 45.7 °F 30.15 in NNW 3.9 mph 4 mph 94.6% 0.00 in 177 W/m2
12:34 47.1 °F 45.5 °F 30.15 in North 3.2 mph 5 mph 94.1% 0.00 in 170 W/m2
12:39 47.3 °F 45.7 °F 30.15 in North 3.1 mph 5 mph 94% 0.00 in 164 W/m2
12:44 47.3 °F 45.7 °F 30.15 in North 2.6 mph 4 mph 94% 0.00 in 168 W/m2
12:49 47.5 °F 45.8 °F 30.14 in North 3 mph 4 mph 94% 0.00 in 180 W/m2
12:54 47.6 °F 45.8 °F 30.14 in North 2.9 mph 4 mph 93.5% 0.00 in 169 W/m2
12:59 47.5 °F 45.8 °F 30.14 in North 2.2 mph 4 mph 93.9% 0.00 in 145 W/m2
13:04 47.7 °F 46 °F 30.14 in North 4.9 mph 4.5 mph 94% 0.00 in 137 W/m2
13:09 47.8 °F 46.1 °F 30.14 in NNE 4.5 mph 6 mph 94% 0.00 in 145 W/m2
13:14 47.8 °F 46.2 °F 30.14 in NNE 4 mph 5 mph 94% 0.00 in 145 W/m2
13:19 47.9 °F 46.3 °F 30.14 in NNE 3.8 mph 5 mph 94% 0.00 in 156 W/m2
13:24 48.1 °F 46.5 °F 30.14 in North 4.2 mph 5 mph 94% 0.00 in 158 W/m2
13:29 48.2 °F 46.6 °F 30.14 in NNE 3.8 mph 5 mph 94% 0.00 in 132 W/m2
13:34 48.1 °F 46.5 °F 30.14 in NNE 4.8 mph 6 mph 94% 0.00 in 120 W/m2
13:39 48 °F 46.4 °F 30.13 in NNE 3.7 mph 6 mph 94% 0.00 in 105 W/m2
13:44 48 °F 46.4 °F 30.13 in NNE 5 mph 5 mph 94% 0.00 in 102 W/m2
13:49 48 °F 46.4 °F 30.13 in NNE 5.5 mph 6 mph 94% 0.00 in 101 W/m2
13:54 47.9 °F 46.3 °F 30.13 in NNE 5.5 mph 7 mph 94% 0.00 in 81 W/m2
13:59 47.8 °F 46.1 °F 30.13 in NNE 6.5 mph 7 mph 94% 0.00 in 65 W/m2
14:04 47.7 °F 46.2 °F 30.13 in NNE 6.1 mph 8 mph 94.5% 0.00 in 53 W/m2
14:09 47.7 °F 46.3 °F 30.13 in North 4.6 mph 6 mph 95% 0.00 in 38 W/m2
14:14 47.5 °F 46.1 °F 30.13 in North 5 mph 6 mph 95% 0.00 in 41 W/m2
14:19 47.5 °F 46.1 °F 30.12 in North 5.3 mph 6 mph 95% 0.00 in 49 W/m2
14:24 47.3 °F 45.9 °F 30.12 in North 4.3 mph 7 mph 95% 0.00 in 55 W/m2
14:29 47.3 °F 45.9 °F 30.12 in North 5.1 mph 6 mph 95% 0.00 in 71 W/m2
14:34 47.3 °F 45.9 °F 30.12 in North 4.7 mph 6 mph 95% 0.00 in 75 W/m2
14:39 47.3 °F 45.9 °F 30.12 in NNE 4.3 mph 6 mph 95% 0.00 in 83 W/m2
14:44 47.3 °F 46 °F 30.12 in NNE 4.6 mph 5 mph 95.3% 0.00 in 82 W/m2
14:49 47.3 °F 46 °F 30.12 in NNE 4.7 mph 6 mph 95.4% 0.00 in 66 W/m2
14:54 47.2 °F 46.1 °F 30.12 in NNE 5.2 mph 6 mph 96% 0.00 in 59 W/m2
14:59 47.1 °F 46 °F 30.12 in NNE 5 mph 6 mph 96% 0.00 in 59 W/m2
15:04 47.1 °F 46 °F 30.12 in NNE 5 mph 6 mph 96% 0.00 in 56 W/m2
15:09 47 °F 45.9 °F 30.12 in NNE 4.3 mph 6 mph 96% 0.00 in 43 W/m2
15:14 46.9 °F 45.9 °F 30.12 in North 5.1 mph 6 mph 96% 0.00 in 36 W/m2
15:19 46.8 °F 45.8 °F 30.12 in NNE 5.4 mph 6 mph 96% 0.00 in 35 W/m2
15:24 46.7 °F 45.6 °F 30.11 in NNE 6.1 mph 6 mph 96% 0.00 in 32 W/m2
15:29 46.5 °F 45.4 °F 30.11 in NNE 6.3 mph 7 mph 96% 0.00 in 25 W/m2
15:34 46.4 °F 45.7 °F 30.11 in North 6.1 mph 8 mph 97.5% 0.00 in 23 W/m2
15:39 46.2 °F 45.7 °F 30.11 in North 6.8 mph 7 mph 98% 0.00 in 23 W/m2
15:44 46.1 °F 45.6 °F 30.11 in NNE 6.2 mph 7 mph 98% 0.00 in 19 W/m2
15:49 46 °F 45.5 °F 30.11 in North 5.7 mph 7 mph 98% 0.00 in 15 W/m2
15:54 45.9 °F 45.4 °F 30.10 in North 5.2 mph 7 mph 98% 0.00 in 9 W/m2
15:59 45.9 °F 45.5 °F 30.10 in North 5.6 mph 6 mph 98.7% 0.00 in 7 W/m2
16:04 45.8 °F 45.5 °F 30.10 in NNE 5.1 mph 6 mph 99% 0.00 in 4 W/m2
16:09 45.7 °F 45.4 °F 30.10 in NNE 5.6 mph 6 mph 99% 0.00 in 2 W/m2
16:14 45.6 °F 45.3 °F 30.10 in NNE 5.2 mph 8 mph 99% 0.00 in 1 W/m2
16:19 45.5 °F 45.2 °F 30.10 in North 5.2 mph 6 mph 99% 0.00 in 0 W/m2
16:24 45.4 °F 45.2 °F 30.10 in NNE 5.4 mph 6 mph 99% 0.00 in 0 W/m2
16:29 45.3 °F 45.1 °F 30.10 in NNE 5.3 mph 6 mph 99% 0.00 in 0 W/m2
16:34 45.3 °F 45.1 °F 30.10 in NNE 4.8 mph 6 mph 99% 0.00 in 0 W/m2
16:39 45.1 °F 44.9 °F 30.10 in NNE 4.5 mph 6 mph 99% 0.00 in 0 W/m2
16:44 45.1 °F 44.9 °F 30.10 in NNE 4.7 mph 6 mph 99% 0.00 in 0 W/m2
16:49 45.1 °F 44.9 °F 30.10 in NNE 4 mph 5 mph 99% 0.00 in 0 W/m2
16:54 45.1 °F 44.9 °F 30.10 in NNE 5.5 mph 5 mph 99% 0.00 in 0 W/m2
16:59 45.1 °F 44.8 °F 30.10 in NNE 5.2 mph 7 mph 99% 0.00 in 0 W/m2
17:04 45 °F 44.8 °F 30.10 in NNE 4.1 mph 7 mph 99% 0.00 in 0 W/m2
17:09 45 °F 44.7 °F 30.10 in NNE 4.4 mph 5 mph 99% 0.00 in 0 W/m2
17:14 45 °F 44.7 °F 30.10 in NNE 3.8 mph 5 mph 99% 0.00 in 0 W/m2
17:19 45 °F 44.7 °F 30.10 in NNE 3.5 mph 5 mph 99% 0.00 in 0 W/m2
17:24 44.9 °F 44.6 °F 30.10 in NNE 3.8 mph 4 mph 99% 0.00 in 0 W/m2
17:29 44.8 °F 44.5 °F 30.10 in NNE 4.3 mph 5 mph 99% 0.00 in 0 W/m2
17:34 44.8 °F 44.5 °F 30.09 in NNE 4.9 mph 6 mph 99% 0.00 in 0 W/m2
17:39 44.8 °F 44.5 °F 30.09 in NNE 5 mph 6 mph 99% 0.00 in 0 W/m2
17:44 44.8 °F 44.5 °F 30.09 in NNE 4.6 mph 6 mph 99% 0.00 in 0 W/m2
17:49 44.6 °F 44.3 °F 30.09 in NNE 4 mph 5 mph 99% 0.00 in 0 W/m2
17:54 44.6 °F 44.3 °F 30.09 in NNE 4.7 mph 5 mph 99% 0.00 in 0 W/m2
17:59 44.6 °F 44.3 °F 30.09 in NNE 3.5 mph 6 mph 99% 0.00 in 0 W/m2
18:04 44.6 °F 44.3 °F 30.09 in NNE 3.7 mph 5 mph 99% 0.00 in 0 W/m2
18:09 44.6 °F 44.3 °F 30.09 in NNE 3.5 mph 5 mph 99% 0.00 in 0 W/m2
18:14 44.6 °F 44.3 °F 30.09 in NNE 3.7 mph 4 mph 99% 0.00 in 0 W/m2
18:19 44.6 °F 44.3 °F 30.09 in NNE 3.9 mph 5 mph 99% 0.00 in 0 W/m2
18:24 44.6 °F 44.3 °F 30.08 in NNE 3.2 mph 5 mph 99% 0.00 in 0 W/m2
18:29 44.6 °F 44.3 °F 30.09 in North 2.9 mph 3 mph 99% 0.00 in 0 W/m2
18:34 44.6 °F 44.3 °F 30.08 in North 3.9 mph 3.4 mph 99% 0.00 in 0 W/m2
18:39 44.6 °F 44.3 °F 30.08 in North 3.2 mph 5 mph 99% 0.00 in 0 W/m2
18:44 44.6 °F 44.3 °F 30.08 in North 2.4 mph 3 mph 99% 0.00 in 0 W/m2
18:49 44.6 °F 44.3 °F 30.08 in North 2.8 mph 3 mph 99% 0.00 in 0 W/m2
18:54 44.6 °F 44.3 °F 30.08 in North 3.7 mph 3 mph 99% 0.00 in 0 W/m2
18:59 44.6 °F 44.3 °F 30.08 in NNE 3.4 mph 5 mph 99% 0.00 in 0 W/m2
19:04 44.6 °F 44.3 °F 30.08 in NNE 3.1 mph 4 mph 99% 0.00 in 0 W/m2
19:09 44.5 °F 44.3 °F 30.08 in NNE 3.7 mph 4 mph 99% 0.00 in 0 W/m2
19:14 44.4 °F 44.2 °F 30.08 in NNE 2 mph 5 mph 99% 0.00 in 0 W/m2
19:19 44.4 °F 44.2 °F 30.08 in NNE 1.8 mph 3 mph 99% 0.00 in 0 W/m2
19:24 44.4 °F 44.2 °F 30.08 in NNE 2.4 mph 2 mph 99% 0.00 in 0 W/m2
19:29 44.4 °F 44.2 °F 30.07 in NNE 2 mph 3 mph 99% 0.00 in 0 W/m2
19:34 44.4 °F 44.2 °F 30.07 in North 2.1 mph 2 mph 99% 0.00 in 0 W/m2
19:39 44.4 °F 44.2 °F 30.07 in North 2.2 mph 2 mph 99% 0.00 in 0 W/m2
19:44 44.4 °F 44.2 °F 30.07 in NNE 2.1 mph 2 mph 99% 0.00 in 0 W/m2
19:49 44.3 °F 44.1 °F 30.07 in NNE 2.3 mph 2 mph 99% 0.00 in 0 W/m2
19:54 44.4 °F 44.2 °F 30.07 in NNE 1.2 mph 2 mph 99% 0.00 in 0 W/m2
19:59 44.4 °F 44.2 °F 30.06 in North 1.1 mph 2 mph 99% 0.00 in 0 W/m2
20:04 44.4 °F 44.2 °F 30.06 in North 2 mph 2 mph 99% 0.00 in 0 W/m2
20:09 44.3 °F 44.1 °F 30.06 in North 2.2 mph 2 mph 99% 0.00 in 0 W/m2
20:14 44.2 °F 44 °F 30.06 in North 1.8 mph 2 mph 99% 0.00 in 0 W/m2
20:19 44.2 °F 44 °F 30.06 in North 1 mph 2 mph 99% 0.00 in 0 W/m2
20:24 44.2 °F 44 °F 30.06 in Calm   1 mph 99% 0.00 in 0 W/m2
20:29 44.2 °F 44 °F 30.06 in North 0.5 mph 0.2 mph 99% 0.00 in 0 W/m2
20:34 44.2 °F 44 °F 30.06 in North 1.3 mph 1.1 mph 99% 0.00 in 0 W/m2
20:39 44.2 °F 44 °F 30.06 in NE 2.3 mph 2 mph 99% 0.00 in 0 W/m2
20:44 44.2 °F 44 °F 30.06 in SE 2.3 mph 3 mph 99% 0.00 in 0 W/m2
20:49 44.2 °F 44 °F 30.06 in SSW 2.2 mph 3 mph 99% 0.00 in 0 W/m2
20:54 44.2 °F 44 °F 30.06 in SW 1.5 mph 2 mph 99% 0.00 in 0 W/m2
20:59 44.2 °F 44 °F 30.06 in South 1.9 mph 2 mph 99% 0.00 in 0 W/m2
21:04 44.2 °F 44 °F 30.06 in ENE 1.7 mph 2 mph 99% 0.00 in 0 W/m2
21:09 44.2 °F 44 °F 30.06 in SSE 3 mph 2.7 mph 99% 0.00 in 0 W/m2
21:14 44.2 °F 44 °F 30.06 in South 2.2 mph 4 mph 99% 0.00 in 0 W/m2
21:19 44.2 °F 44 °F 30.06 in SE 1.4 mph 4 mph 99% 0.00 in 0 W/m2
21:20 44.2 °F 44 °F 30.05 in East 1.8 mph 2 mph 99% 0.00 in 0 W/m2
21:25 44.2 °F 44 °F 30.05 in Calm   2 mph 99% 0.00 in 0 W/m2
21:30 44.2 °F 44 °F 30.05 in WNW 1 mph 2 mph 99% 0.00 in 0 W/m2
21:35 44.2 °F 44 °F 30.05 in Calm   1 mph 99% 0.00 in 0 W/m2
21:44 44.2 °F 44 °F 30.05 in North 0.7 mph   99% 0.00 in 0 W/m2
21:49 44.2 °F 44 °F 30.05 in NNW 1.9 mph 2 mph 99% 0.00 in 0 W/m2
21:54 44.2 °F 44 °F 30.05 in West 1.8 mph 2 mph 99% 0.00 in 0 W/m2
21:59 44.2 °F 44 °F 30.04 in WNW 1.9 mph 2 mph 99% 0.00 in 0 W/m2
22:04 44.2 °F 44 °F 30.04 in West 2.2 mph 3 mph 99% 0.00 in 0 W/m2
22:09 44.2 °F 43.9 °F 30.05 in West 3.1 mph 3 mph 99% 0.00 in 0 W/m2
22:14 44.1 °F 43.8 °F 30.04 in West 2.3 mph 4 mph 99% 0.00 in 0 W/m2
22:19 44.1 °F 43.8 °F 30.04 in West 2 mph 3 mph 99% 0.00 in 0 W/m2
22:24 44.1 °F 43.8 °F 30.04 in West 1.3 mph 3 mph 99% 0.00 in 0 W/m2
22:29 44.1 °F 43.8 °F 30.04 in West 1.9 mph 2 mph 99% 0.00 in 0 W/m2
22:34 44 °F 43.7 °F 30.04 in West 2.2 mph 2 mph 99% 0.00 in 0 W/m2
22:39 43.9 °F 43.6 °F 30.04 in West 0.7 mph 2 mph 99% 0.00 in 0 W/m2
22:44 43.9 °F 43.6 °F 30.04 in West 1.8 mph 2 mph 99% 0.00 in 0 W/m2
22:49 43.9 °F 43.6 °F 30.04 in SW 2.1 mph 2 mph 99% 0.00 in 0 W/m2
22:54 43.8 °F 43.5 °F 30.04 in SW 1.6 mph 2 mph 99% 0.00 in 0 W/m2
22:59 43.7 °F 43.4 °F 30.03 in West 1.2 mph 2 mph 99% 0.00 in 0 W/m2
23:04 43.7 °F 43.4 °F 30.03 in WNW 1.4 mph 2 mph 99% 0.00 in 0 W/m2
23:09 43.8 °F 43.5 °F 30.03 in WNW 2.2 mph 2 mph 99% 0.00 in 0 W/m2
23:14 43.7 °F 43.4 °F 30.03 in WSW 2.2 mph 2 mph 99% 0.00 in 0 W/m2
23:19 43.7 °F 43.4 °F 30.03 in WSW 2.2 mph 2 mph 99% 0.00 in 0 W/m2
23:24 43.6 °F 43.4 °F 30.03 in SW 2.8 mph 3 mph 99% 0.00 in 0 W/m2
23:29 43.5 °F 43.3 °F 30.03 in SSW 2.5 mph 3 mph 99% 0.00 in 0 W/m2
23:34 43.4 °F 43.2 °F 30.03 in SSW 2.7 mph 3 mph 99% 0.00 in 0 W/m2
23:39 43.3 °F 43.1 °F 30.03 in SSW 2.2 mph 3 mph 99% 0.00 in 0 W/m2
23:44 43.2 °F 42.9 °F 30.02 in SW 2.1 mph 2 mph 99% 0.00 in 0 W/m2
23:49 43.2 °F 42.9 °F 30.02 in WSW 2.3 mph 3 mph 99% 0.00 in 0 W/m2
23:54 43.2 °F 42.9 °F 30.02 in WSW 2.3 mph 3 mph 99% 0.00 in 0 W/m2
23:59 43.2 °F 42.9 °F 30.02 in WSW 1.9 mph 3 mph 99% 0.00 in 0 W/m2
Knjazevac, Serbia
Compliments of Weather Underground - 4 mb